Flag for Canada Weather past 2 weeks in Gatineau, Quebec, Canada

Now
37 °F

Passing clouds.


Feels Like: 31 °F
Forecast: 37 / 56 °F
Wind: 8 mph from Northwest

Location: Ottawa Int'L. Ont.

Current Time: Apr 26, 2015 at 2:50:14 AM

Latest Report: Apr 26, 2015 at 2:00 AM


Visibility: 15 mi

Pressure: 29.80 "Hg

Humidity: 75%

Dew point: 30 °F

Location of GatineauLocation

Historic Weather in Gatineau — Graph

°F

Gatineau temperature yesterday

Maximum temperature yesterday: 52 °F (at 5:00 PM)
Minimum temperature yesterday: 28 °F (at 4:00 AM)
Average temperature yesterday: 40 °F

Past Weeks' High & Low Weather Summary

 TemperatureHumidityPressure
High73 °F (Apr 13, 4:00 PM)100% (Apr 20, 11:00 AM)30.45 "Hg (Apr 20, 11:00 AM)
Low28 °F (Apr 16, 4:00 AM)13% (Apr 15, 4:00 PM)29.48 "Hg (Apr 21, 5:00 AM)
Average46 °F56%29.94 "Hg
* Reported Apr 11 1:00 AM — Apr 26 1:00 AM, Gatineau, Weather by CustomWeather, © 2015

Note: Actual official high and low records may vary slightly from our data, if they occured in-between our weather recording intervals... More about our weather records

Advertising

Gatineau weather history for previous 24 hours

 ConditionsComfort  
Time TempWeatherWind HumidityBarometerVisibility
1:00 AM
Sun, Apr 26
39 °FPassing clouds.8 mph70%29.80 "Hg15 mi
12:00 AM39 °FPassing clouds.10 mph70%29.80 "Hg15 mi
11:00 PM
Sat, Apr 25
43 °FPassing clouds.10 mph61%29.80 "Hg15 mi
10:00 PM43 °FPassing clouds.12 mph61%29.80 "Hg15 mi
9:00 PM46 °FScattered clouds.10 mph53%29.79 "Hg15 mi
8:00 PM48 °FPartly sunny.8 mph50%29.79 "Hg15 mi
7:00 PM50 °FPartly sunny.13 mph47%29.79 "Hg15 mi
6:00 PM50 °FPartly sunny.13 mph47%29.78 "Hg15 mi
5:00 PM52 °FPartly sunny.12 mph44%29.78 "Hg15 mi
4:00 PM50 °FPartly sunny.7 mph47%29.79 "Hg15 mi
3:00 PM50 °FPartly sunny.10 mph47%29.81 "Hg15 mi
2:00 PM50 °FPartly sunny.13 mph47%29.84 "Hg15 mi
1:00 PM43 °FPartly sunny.14 mph53%29.87 "Hg15 mi
12:00 PM43 °FPartly sunny.13 mph53%29.87 "Hg15 mi
11:00 AM37 °FPartly sunny.14 mph60%29.88 "Hg15 mi
10:00 AM36 °FPartly sunny.13 mph65%29.90 "Hg15 mi
9:00 AM36 °FPartly sunny.9 mph60%29.90 "Hg15 mi
8:00 AM34 °FScattered clouds.8 mph65%29.90 "Hg15 mi
7:00 AM30 °FPassing clouds.7 mph75%29.90 "Hg15 mi
6:00 AM28 °FPassing clouds.10 mph74%29.90 "Hg15 mi
5:00 AM28 °FPassing clouds.8 mph74%29.90 "Hg15 mi
4:00 AM28 °FClear.8 mph74%29.92 "Hg15 mi
3:00 AM30 °FClear.12 mph69%29.93 "Hg15 mi
2:00 AM30 °FPassing clouds.9 mph69%29.92 "Hg15 mi
Weather by CustomWeather, © 2015

See weather overviewHow to use our weather pages